sat.trackr.live / text

‹ back to catalog

SBIRS GEO-4 (USA 273)

NORAD 41937 · 2017-004A

PAYLOAD ACTIVE UNKNOWN

§ Identity

Operator
Country
US
Launch date
2017-01-21
Launch site
AFETR
Launch vehicle
Mass (kg)
RCS (m²)

Purposes: comms

External: N2YO · Heavens-Above · Gunter

§ Orbital elements

Epoch: 2026-05-24T19:17:14.241984Z

Period
1,436.09 min
Inclination
2.2007°
Eccentricity
0.0002231
Mean motion
1.00272479 rev/d
Perigee alt
35,777.0 km
Apogee alt
35,795.8 km
Semi-major
42,164.5 km
B*
0.0000e+0
RAAN
42.6615°
Arg perigee
12.5343°
Mean anomaly
137.4089°
Rev number
3,436

§ Raw data

SBIRS GEO-4 (USA 273)1 41937U 17004A   26144.80363706  .00000120  00000+0  00000+0 0  99972 41937   2.2007  42.6615 0002231  12.5343 137.4089  1.00272479 34367

JSON: /api/v1/satellites/41937 · /tle

For live sub-satellite position, see the globe view (requires WebGL).

§ Visibility from observer

Set your observer location to see the next 7 days of passes ≥ 10°. The values pass through the URL so the page stays shareable.

No JS? Fill the form by hand. The geolocation button needs JavaScript.